CW5443 Weather Reports


time (UTC)temp
C
wind
direction
speed
KPH
gust
KPH
rain 1hr
cm
rain 24hr
cm
rain mn
cm
humidity
%
barometer
mb
20260504182308 18 269 4.8 9.7 0.00 0.00 0.00 38 1005.8
20260504181307 18 254 3.2 11.3 0.00 0.00 0.00 35 1006.1
20260504180306 17 242 4.8 12.9 0.00 0.00 0.00 37 1006.1
20260504175305 17 208 3.2 9.7 0.00 0.00 0.00 38 1006.1
20260504174305 17 290 3.2 17.7 0.00 0.00 0.00 38 1006.1
20260504173201 17 262 4.8 17.7 0.00 0.00 0.00 38 1006.1
20260504172200 17 281 4.8 17.7 0.00 0.00 0.00 36 1006.4
20260504171159 17 289 3.2 17.7 0.00 0.00 0.00 37 1006.4
20260504170159 17 245 6.4 16.1 0.00 0.00 0.00 37 1006.4
20260504160124 17 285 4.8 17.7 0.00 0.00 0.00 35 1006.8
20260504151049 17 284 6.4 17.7 0.00 0.00 0.00 36 1006.8
20260504141044 16 251 6.4 16.1 0.00 0.00 0.00 38 1007.1
20260504110651 3 243 0.0 1.6 0.00 0.00 0.00 74 1009.1
20260504100502 3 242 0.0 0.0 0.00 0.00 0.00 73 1009.1
20260504081320 3 242 0.0 3.2 0.00 0.00 0.00 73 1009.1
20260504080319 3 242 1.6 3.2 0.00 0.00 0.00 73 1008.8
20260504070243 2 242 1.6 4.8 0.00 0.00 0.00 72 1009.1
20260504045026 0 243 0.0 0.0 0.00 0.00 0.00 68 1009.1
20260504044026 0 243 0.0 1.6 0.00 0.00 0.00 68 1009.1
20260504043025 1 243 0.0 1.6 0.00 0.00 0.00 68 1009.1
20260504042023 1 243 0.0 0.0 0.00 0.00 0.00 67 1009.1
20260504041023 1 243 0.0 1.6 0.00 0.00 0.00 67 1009.1
20260504040023 1 243 0.0 1.6 0.00 0.00 0.00 67 1009.1
20260504035022 1 243 0.0 1.6 0.00 0.00 0.00 67 1008.8
20260504034021 1 243 0.0 1.6 0.00 0.00 0.00 67 1008.8
20260504033020 2 243 0.0 1.6 0.00 0.00 0.00 67 1008.8
20260504031948 2 243 0.0 1.6 0.00 0.00 0.00 66 1008.8
20260504030948 2 243 0.0 1.6 0.00 0.00 0.00 66 1008.8
20260504025947 2 243 0.0 3.2 0.00 0.00 0.00 66 1008.8
20260504024946 2 243 0.0 3.2 0.00 0.00 0.00 66 1008.8
20260504023945 2 243 0.0 3.2 0.00 0.00 0.00 65 1008.8
20260504022913 3 243 0.0 3.2 0.00 0.03 0.00 65 1008.8
20260504021841 3 243 0.0 3.2 0.00 0.03 0.00 65 1008.8
20260504020841 3 243 0.0 0.0 0.00 0.03 0.00 64 1008.8
20260504015840 3 243 0.0 0.0 0.00 0.03 0.00 64 1008.8
20260504014839 4 243 0.0 1.6 0.00 0.05 0.00 63 1008.8
20260504013803 4 243 0.0 1.6 0.00 0.08 0.00 63 1008.8
20260504012802 5 243 0.0 3.2 0.00 0.15 0.00 62 1008.8
20260504011730 5 243 0.0 3.2 0.00 0.15 0.00 62 1008.5
20260504010729 5 243 0.0 3.2 0.00 0.15 0.00 60 1008.5
20260504005728 6 243 0.0 0.0 0.00 0.15 0.00 59 1008.5
20260504004727 6 243 0.0 0.0 0.00 0.15 0.00 58 1008.5
20260504003727 6 243 0.0 1.6 0.00 0.15 0.00 57 1008.1
20260504002726 6 243 0.0 3.2 0.00 0.15 0.00 57 1008.1
20260504001655 7 243 0.0 3.2 0.00 0.15 0.00 56 1008.1
20260504000654 7 243 0.0 3.2 0.00 0.15 0.00 54 1007.8
20260503235653 7 243 0.0 4.8 0.00 0.15 0.00 53 1007.8
20260503234652 7 243 1.6 4.8 0.00 0.15 0.00 51 1007.5
20260503233651 8 243 3.2 4.8 0.00 0.15 0.00 49 1007.5
20260503232651 8 243 3.2 6.4 0.00 0.15 0.00 46 1007.5
20260503231619 8 243 3.2 9.7 0.00 0.15 0.00 45 1007.5
20260503230618 9 246 4.8 11.3 0.00 0.15 0.00 42 1007.5
20260503225617 9 251 4.8 11.3 0.00 0.15 0.00 43 1007.1
20260503224545 10 246 3.2 12.9 0.00 0.15 0.00 42 1007.5
20260503223544 10 249 6.4 12.9 0.00 0.15 0.00 41 1007.1
20260503222543 10 246 3.2 11.3 0.00 0.15 0.00 40 1007.1
20260503221542 10 253 4.8 14.5 0.00 0.15 0.00 38 1007.1
20260503220541 10 259 6.4 14.5 0.00 0.15 0.00 40 1006.8
20260503215509 10 258 6.4 16.1 0.00 0.15 0.00 40 1006.8
20260503214508 11 259 6.4 16.1 0.00 0.15 0.00 38 1006.8
20260503213507 11 254 9.7 17.7 0.00 0.15 0.00 37 1006.8
20260503212506 10 276 4.8 19.3 0.00 0.15 0.00 38 1006.8
20260503211505 10 259 8.0 19.3 0.00 0.15 0.00 38 1006.8
20260503210504 10 259 6.4 12.9 0.00 0.15 0.00 38 1006.8
20260503205401 10 254 4.8 12.9 0.00 0.18 0.00 37 1006.8
20260503204401 11 258 6.4 12.9 0.00 0.25 0.00 38 1006.4
20260503203400 10 261 3.2 14.5 0.00 0.28 0.00 39 1006.4
20260503202359 11 264 9.7 14.5 0.00 0.33 0.00 38 1006.4
20260503201358 11 256 6.4 14.5 0.00 0.36 0.00 36 1006.4
20260503200358 11 258 8.0 19.3 0.00 0.36 0.00 37 1006.4
20260503195357 11 256 6.4 19.3 0.00 0.36 0.00 37 1006.1
20260503194325 10 247 6.4 19.3 0.00 0.36 0.00 42 1006.4
20260503193325 10 262 6.4 19.3 0.00 0.36 0.00 39 1006.4
20260503192324 10 248 8.0 14.5 0.00 0.36 0.00 38 1006.4
20260503191323 11 250 6.4 14.5 0.00 0.36 0.00 37 1006.4
20260503190251 11 252 6.4 16.1 0.00 0.36 0.00 39 1006.4
20260503185220 11 225 3.2 16.1 0.00 0.36 0.00 42 1006.4
20260503184219 10 202 6.4 16.1 0.00 0.36 0.00 41 1006.4
20260503183218 11 249 4.8 19.3 0.00 0.36 0.00 43 1006.4